Wind_Speed
47 48 48 51 52 47 45 43 40 37 40 40 40 45 48 49 55 53 50 51 50 48 50 51 47 45 43 46 47 44 44 39 39 33 30 35 27 24 24 22 24 25 28
48 49 48 48 50 53 50 47 43 42 40 43 43 42 41 40 45 45 45 45 49 46 46 47 43 53 49 49 47 50 50 44 37 39 32 36 26 27 23 22 23 23 27
52 51 50 49 48 50 52 46 47 48 46 43 41 42 43 41 37 45 49 48 47 49 47 45 37 44 51 53 52 48 43 46 35 39 35 35 25 27 23 23 23 22 25
54 52 51 49 49 49 49 51 49 49 48 46 45 43 43 43 40 39 40 47 55 52 51 47 43 41 46 52 51 47 43 42 34 39 36 32 27 27 23 23 21 23 24
52 52 51 49 49 49 48 49 50 48 47 46 47 47 44 45 46 45 43 44 46 58 57 52 44 38 44 49 47 44 44 47 44 48 33 32 28 27 23 23 20 22 24
51 49 48 47 44 43 44 45 48 49 47 47 46 46 46 45 45 47 49 50 48 50 59 57 49 44 42 47 44 41 41 39 36 41 35 31 29 24 24 22 19 22 23
48 49 48 48 49 48 49 52 52 52 52 51 50 49 49 49 49 48 47 50 48 46 53 56 52 47 42 48 44 42 41 41 35 40 35 33 30 23 24 22 20 22 23
48 50 51 54 55 57 60 59 60 60 59 58 58 55 55 53 51 50 49 49 48 44 47 52 51 46 45 50 45 44 45 49 40 38 38 36 27 26 25 22 21 22 24
50 52 55 59 61 63 64 66 66 67 68 68 66 64 61 59 56 53 51 48 46 42 43 46 47 45 50 54 47 47 47 45 39 41 38 34 31 27 24 24 21 22 24
56 58 61 63 64 65 65 61 58 61 63 64 70 73 69 64 62 57 54 48 44 43 42 44 42 44 54 55 52 50 46 41 42 45 38 38 32 28 26 24 21 23 24
59 62 63 64 65 58 53 52 52 54 57 60 59 61 68 70 65 60 57 52 46 48 46 42 41 45 59 56 49 50 45 46 41 47 39 40 32 29 28 26 23 25 23
62 64 64 62 55 54 55 56 57 58 58 56 57 55 60 63 66 61 59 56 49 50 47 43 45 54 62 57 51 47 51 52 46 49 41 39 34 32 28 27 25 25 24
65 64 60 56 57 57 57 56 59 61 61 55 53 52 51 60 63 59 55 52 52 54 51 45 47 63 66 69 43 58 51 47 44 50 43 39 36 32 30 28 25 25 25
60 57 58 58 57 56 57 57 54 55 56 56 50 50 48 57 51 54 51 50 51 53 53 49 54 68 71 50 46 49 45 45 47 50 44 41 36 36 30 27 25 24 26
60 58 56 57 54 52 51 50 49 43 41 45 44 44 44 45 44 48 49 49 52 50 51 54 60 68 61 51 49 50 50 50 52 53 48 43 40 35 31 28 27 26 28
45 43 38 42 40 39 39 38 37 36 37 37 40 43 37 36 41 45 48 50 52 52 54 55 67 65 53 43 47 53 47 47 53 50 47 41 38 35 32 30 28 29 28
39 37 32 30 26 26 27 25 26 27 30 32 35 43 37 34 38 41 44 45 49 54 60 68 73 62 48 42 49 53 50 48 51 48 40 40 38 36 33 31 29 32 27
19 23 23 20 21 19 16 16 16 19 27 29 36 38 36 35 35 36 35 36 44 55 62 70 71 58 49 49 56 50 48 55 50 46 43 42 39 36 34 30 28 27 27
12 14 12 13 13 14 15 17 19 24 29 31 31 31 32 34 33 24 23 27 38 57 73 67 54 54 53 55 55 50 51 53 47 44 44 42 39 37 33 29 28 28 29
9 10 10 10 13 15 17 18 20 21 23 26 29 30 34 27 21 15 17 31 53 61 52 50 52 50 47 50 50 57 55 47 45 46 41 40 39 36 32 28 28 28 29
7 9 10 10 12 14 17 17 18 21 23 27 29 26 21 17 20 24 46 36 38 45 54 53 48 54 42 45 50 50 43 44 40 42 40 40 39 32 30 29 28 24 25
8 7 10 15 13 9 12 14 19 21 24 29 27 24 17 19 27 38 32 40 46 45 47 48 51 50 49 47 46 43 43 40 38 40 32 34 31 29 29 29 29 27 27
7 9 10 11 11 11 14 16 17 21 27 29 26 25 19 15 23 27 38 49 45 47 45 48 46 49 46 46 45 42 41 37 33 33 34 33 30 28 27 30 32 31 32
7 10 10 10 11 14 14 16 16 20 22 23 20 16 14 17 28 38 38 45 46 42 39 39 42 47 47 44 42 37 36 35 36 37 34 32 30 31 30 31 32 32 34
10 10 13 15 14 16 16 18 19 22 23 20 20 15 21 20 24 40 36 43 44 44 42 39 40 46 44 42 39 35 34 33 35 31 30 30 30 30 31 34 36 36 37
5 8 15 14 13 16 19 20 26 24 25 18 17 19 25 22 20 37 39 39 41 40 37 41 39 36 36 36 37 36 32 32 33 32 30 31 32 32 33 34 34 36 36
Wind_Direction
272 271 269 268 268 265 264 264 265 263 261 259 257 258 261 259 256 253 255 254 256 259 262 265 260 254 254 256 251 254 254 268 266 250 247 261 270 280 287 297 299 308 314
269 268 269 267 266 267 266 265 265 264 261 258 256 256 260 260 254 247 251 251 254 253 254 258 260 256 250 251 252 255 261 267 263 255 238 251 260 271 283 291 295 303 311
272 271 270 268 265 262 264 265 262 262 262 262 258 254 254 255 257 253 248 249 252 249 253 253 256 252 249 249 251 255 261 268 263 252 241 248 255 265 278 285 291 299 307
274 273 272 270 269 266 265 265 264 262 262 262 261 258 252 251 253 253 253 251 250 252 253 256 254 254 244 245 249 252 252 260 263 246 241 245 251 258 272 279 287 294 302
269 270 270 267 266 266 265 263 264 261 259 258 258 257 255 253 253 255 259 257 251 248 249 253 252 256 239 237 241 244 250 252 257 249 238 243 244 252 266 273 283 287 297
270 269 267 266 263 265 267 267 266 264 259 253 257 257 256 255 255 258 261 263 258 253 243 245 250 253 242 228 232 239 247 249 249 250 234 242 235 244 259 268 276 282 293
270 268 266 263 263 265 270 273 270 267 263 257 255 257 257 256 257 260 260 262 259 255 242 238 245 248 241 221 223 233 235 242 243 241 236 232 229 242 254 262 270 277 286
268 268 267 265 264 266 272 271 270 269 267 263 257 255 255 256 257 258 260 260 258 253 241 237 242 246 232 215 215 223 233 237 249 230 239 229 228 240 248 259 266 274 281
267 267 266 266 268 269 270 272 271 269 266 263 260 256 255 255 255 257 258 257 253 247 237 234 240 244 224 210 212 222 228 233 236 225 229 220 226 235 245 255 263 270 276
270 270 270 271 271 272 273 269 267 266 264 261 257 254 252 251 252 253 253 250 249 239 236 237 239 237 213 211 211 220 226 225 230 226 225 223 224 231 240 251 261 270 273
271 272 272 273 275 273 269 271 269 266 264 259 260 255 250 244 246 247 247 247 244 238 233 237 239 224 208 206 210 217 218 225 232 227 229 223 222 230 239 248 263 272 268
275 275 275 277 273 273 276 274 270 266 263 262 262 259 253 236 237 240 244 244 245 235 233 235 234 211 206 207 207 222 218 222 231 224 223 222 221 229 238 249 265 265 265
276 277 276 275 277 277 274 272 268 264 259 256 254 254 253 227 229 233 240 242 238 231 232 235 226 209 207 209 207 211 222 229 224 218 221 220 223 228 238 250 263 262 264
276 276 276 275 274 273 272 272 270 263 263 248 247 250 236 221 227 230 234 233 230 226 225 230 219 210 216 210 205 205 218 220 225 218 216 216 221 228 237 249 259 267 263
275 273 272 268 268 268 270 271 264 260 245 241 246 229 215 214 221 229 229 229 225 230 229 221 214 212 209 209 210 219 218 217 221 218 220 215 221 228 238 246 258 264 267
277 268 273 264 257 267 275 265 257 247 242 239 218 203 201 214 223 223 222 224 230 227 222 214 203 208 206 211 219 215 219 219 223 217 224 213 220 229 238 247 261 265 261
278 253 258 254 260 264 267 265 250 239 220 204 204 201 212 221 214 220 228 228 225 221 213 205 204 197 198 212 217 211 216 218 211 218 213 213 219 231 239 249 263 271 248
275 246 237 246 246 257 243 225 206 196 197 202 208 213 211 209 214 212 208 221 221 215 213 205 198 196 202 203 201 208 214 208 210 211 208 216 223 232 241 249 261 258 247
257 239 241 233 231 238 233 215 203 197 198 201 201 198 200 205 200 200 210 223 226 217 199 195 196 196 197 196 205 209 205 207 207 204 212 220 226 232 241 250 259 255 254
247 234 233 239 236 226 216 208 205 205 197 193 191 194 193 184 176 192 227 214 205 201 201 192 188 194 194 197 200 198 203 204 203 208 214 219 223 232 239 248 256 257 260
240 250 241 212 207 215 209 214 211 202 196 189 194 188 176 184 198 201 205 202 204 189 186 185 185 182 189 189 193 199 202 203 205 207 214 221 224 229 239 248 253 260 268
248 213 194 198 208 219 213 203 192 193 191 194 197 185 185 192 202 208 208 199 183 175 182 185 184 187 192 197 197 200 208 213 205 210 215 212 220 231 240 250 254 262 272
221 204 193 201 218 212 188 184 189 191 191 189 195 179 189 204 194 186 178 173 174 175 174 179 184 185 192 197 200 206 206 203 209 217 216 212 221 232 243 252 255 266 273
209 201 199 186 186 187 179 182 179 194 204 205 205 172 164 164 172 156 163 174 170 178 183 181 184 191 196 198 203 204 203 208 213 209 208 218 228 238 246 253 259 270 275
192 192 187 177 177 183 185 184 183 194 208 192 162 172 163 132 161 158 156 169 171 170 173 171 178 188 194 196 198 201 205 209 206 203 217 228 240 250 256 260 265 269 272
167 217 189 183 185 189 188 184 189 196 207 183 158 162 159 143 155 160 162 160 166 163 166 175 178 182 188 194 199 202 202 203 208 220 231 242 248 250 259 263 269 274 275
Height
5726 5726 5727 5728 5728 5731 5732 5732 5733 5734 5734 5734 5736 5738 5739 5741 5743 5748 5751 5755 5756 5760 5763 5765 5772 5778 5783 5785 5790 5793 5795 5797 5797 5800 5802 5804 5805 5806 5804 5803 5801 5798 5793
5713 5713 5713 5713 5714 5715 5718 5720 5723 5723 5724 5725 5725 5726 5727 5728 5730 5735 5740 5744 5746 5749 5752 5755 5760 5766 5772 5776 5781 5784 5786 5787 5789 5792 5794 5796 5799 5800 5800 5799 5798 5795 5791
5697 5699 5699 5700 5701 5702 5703 5706 5708 5709 5711 5713 5713 5715 5716 5718 5720 5723 5728 5732 5734 5738 5741 5744 5748 5752 5760 5765 5772 5776 5779 5780 5781 5784 5785 5789 5793 5795 5795 5795 5794 5792 5788
5683 5684 5685 5686 5687 5688 5689 5690 5692 5694 5697 5698 5700 5701 5704 5706 5709 5711 5714 5718 5722 5725 5730 5732 5737 5739 5746 5752 5761 5767 5770 5772 5772 5776 5777 5782 5786 5789 5790 5791 5790 5789 5785
5670 5670 5671 5672 5672 5672 5674 5675 5676 5680 5682 5684 5686 5688 5690 5693 5696 5699 5702 5704 5707 5711 5715 5720 5724 5727 5733 5741 5749 5756 5761 5764 5764 5768 5771 5776 5780 5783 5785 5785 5785 5784 5782
5654 5656 5656 5657 5658 5658 5659 5661 5662 5664 5668 5670 5672 5674 5676 5679 5683 5685 5688 5690 5693 5695 5700 5706 5712 5715 5720 5729 5737 5744 5751 5755 5758 5762 5766 5769 5773 5777 5779 5780 5780 5779 5779
5639 5640 5640 5641 5643 5644 5645 5645 5647 5649 5652 5655 5657 5659 5662 5665 5668 5671 5674 5675 5679 5681 5686 5693 5700 5704 5709 5717 5725 5735 5741 5747 5750 5755 5759 5762 5767 5771 5774 5774 5775 5775 5774
5624 5625 5626 5626 5627 5627 5627 5628 5628 5629 5632 5636 5640 5644 5646 5650 5653 5656 5659 5661 5665 5668 5673 5680 5687 5693 5698 5706 5715 5725 5733 5739 5743 5748 5752 5756 5761 5765 5767 5769 5770 5770 5770
5610 5610 5610 5608 5609 5609 5608 5608 5609 5609 5612 5615 5618 5624 5629 5634 5638 5641 5644 5648 5652 5657 5662 5669 5675 5681 5687 5696 5706 5717 5723 5729 5735 5740 5745 5749 5753 5759 5762 5764 5764 5765 5765
5593 5592 5590 5589 5588 5588 5587 5587 5587 5588 5589 5591 5596 5603 5609 5615 5621 5626 5630 5635 5641 5646 5652 5658 5663 5669 5677 5686 5694 5704 5713 5721 5727 5733 5738 5742 5747 5753 5756 5758 5759 5760 5760
5574 5573 5571 5569 5568 5566 5566 5566 5567 5568 5569 5572 5575 5581 5585 5595 5603 5609 5615 5621 5628 5633 5640 5647 5652 5657 5667 5676 5685 5695 5705 5712 5718 5724 5730 5735 5742 5747 5749 5753 5754 5755 5754
5552 5551 5549 5548 5547 5546 5545 5546 5546 5546 5548 5552 5554 5558 5562 5573 5583 5592 5599 5607 5614 5619 5628 5635 5640 5646 5656 5665 5674 5686 5694 5699 5707 5714 5722 5729 5735 5740 5744 5747 5748 5749 5750
5531 5530 5528 5527 5526 5525 5523 5525 5523 5524 5527 5531 5534 5540 5544 5554 5565 5576 5585 5592 5597 5605 5613 5623 5629 5636 5645 5650 5660 5674 5684 5690 5698 5706 5715 5722 5728 5734 5738 5741 5743 5743 5745
5510 5509 5509 5508 5508 5506 5503 5503 5502 5502 5504 5510 5516 5521 5528 5539 5551 5562 5571 5577 5584 5591 5601 5609 5617 5625 5631 5639 5650 5663 5672 5681 5691 5698 5705 5714 5722 5726 5732 5735 5736 5737 5739
5491 5490 5489 5488 5489 5488 5486 5484 5483 5483 5485 5492 5499 5505 5515 5529 5540 5548 5556 5564 5570 5578 5586 5593 5602 5611 5624 5633 5641 5652 5662 5672 5681 5689 5698 5708 5713 5721 5726 5728 5730 5732 5733
5474 5473 5471 5470 5473 5473 5471 5468 5468 5469 5472 5478 5485 5496 5508 5518 5527 5535 5542 5548 5556 5567 5573 5582 5594 5604 5616 5628 5636 5645 5656 5666 5675 5682 5691 5699 5708 5715 5719 5722 5724 5725 5725
5454 5454 5459 5460 5462 5462 5461 5458 5457 5459 5463 5470 5480 5491 5501 5511 5518 5525 5531 5538 5543 5550 5560 5571 5583 5596 5608 5617 5629 5640 5650 5660 5668 5677 5685 5695 5702 5708 5713 5715 5717 5718 5718
5445 5445 5450 5452 5454 5455 5455 5454 5454 5457 5464 5471 5479 5487 5495 5502 5510 5517 5522 5528 5533 5541 5551 5565 5577 5589 5602 5609 5622 5632 5644 5653 5662 5670 5681 5689 5697 5702 5706 5708 5710 5710 5712
5445 5445 5447 5448 5450 5451 5453 5454 5456 5458 5463 5469 5476 5484 5490 5497 5504 5510 5516 5523 5529 5537 5549 5561 5572 5583 5593 5604 5617 5630 5638 5647 5656 5666 5676 5684 5690 5695 5699 5701 5703 5703 5704
5444 5445 5445 5446 5448 5449 5451 5454 5456 5459 5464 5471 5475 5482 5487 5491 5498 5505 5511 5518 5526 5535 5544 5555 5567 5579 5589 5601 5612 5623 5632 5642 5651 5660 5670 5677 5682 5688 5691 5694 5695 5696 5697
5444 5444 5444 5445 5446 5448 5451 5454 5457 5459 5464 5470 5474 5477 5483 5489 5497 5504 5512 5517 5523 5532 5542 5553 5564 5577 5587 5598 5608 5619 5629 5639 5647 5656 5664 5670 5676 5680 5684 5686 5688 5689 5690
5442 5442 5443 5445 5447 5448 5451 5453 5457 5460 5465 5469 5471 5475 5483 5490 5497 5501 5506 5512 5522 5532 5542 5553 5565 5577 5588 5598 5607 5617 5626 5634 5643 5651 5657 5663 5669 5673 5677 5679 5680 5682 5683
5441 5442 5443 5445 5446 5448 5451 5453 5457 5462 5465 5467 5471 5477 5484 5488 5492 5496 5502 5512 5522 5533 5543 5553 5564 5574 5585 5594 5604 5613 5622 5630 5638 5644 5651 5657 5662 5666 5669 5671 5673 5675 5676
5439 5440 5442 5444 5446 5449 5452 5455 5460 5462 5465 5467 5472 5478 5482 5486 5491 5497 5505 5515 5525 5534 5544 5553 5562 5573 5584 5594 5602 5610 5617 5624 5631 5637 5645 5650 5655 5658 5660 5663 5665 5667 5668
5436 5438 5441 5445 5447 5451 5455 5459 5462 5464 5467 5469 5474 5477 5484 5490 5495 5502 5510 5518 5528 5535 5544 5553 5562 5572 5582 5592 5600 5607 5614 5620 5627 5633 5639 5644 5648 5651 5653 5656 5658 5658 5659
5436 5438 5440 5445 5448 5451 5456 5461 5462 5466 5467 5471 5476 5482 5487 5490 5496 5505 5513 5521 5530 5538 5546 5555 5564 5573 5582 5589 5596 5602 5609 5616 5623 5629 5633 5637 5641 5643 5646 5648 5650 5650 5650